Time,TemperatureF,DewpointF,PressureIn,WindDirection,WindDirectionDegrees,WindSpeedMPH,WindSpeedGustMPH,Humidity,HourlyPrecipIn,Conditions,Clouds,dailyrainin,SoftwareType,DateUTC
2013-01-25 00:01:00,33.0,11.9,30.41,ENE,74,2.0,6.0,41,0.00,,---,0.00,VWS V14.01,2013-01-25 05:01:00,
2013-01-25 00:15:00,32.6,11.5,30.42,ESE,103,1.0,4.0,41,0.00,,---,0.00,VWS V14.01,2013-01-25 05:15:00,
2013-01-25 00:30:00,32.3,10.1,30.42,East,89,3.0,4.0,39,0.00,,---,0.00,VWS V14.01,2013-01-25 05:30:00,
2013-01-25 00:45:00,32.1,9.9,30.43,East,96,1.0,4.0,39,0.00,,---,0.00,VWS V14.01,2013-01-25 05:45:00,
2013-01-25 01:00:00,31.8,9.7,30.43,ENE,68,2.0,4.0,39,0.00,,---,0.00,VWS V14.01,2013-01-25 06:00:00,
2013-01-25 01:15:00,31.4,9.3,30.42,ENE,66,2.0,4.0,39,0.00,,---,0.00,VWS V14.01,2013-01-25 06:15:00,
2013-01-25 01:30:00,31.1,9.1,30.43,East,79,1.0,5.0,39,0.00,,---,0.00,VWS V14.01,2013-01-25 06:30:00,
2013-01-25 01:45:00,30.8,8.8,30.43,ESE,103,1.0,3.0,39,0.00,,---,0.00,VWS V14.01,2013-01-25 06:45:00,
2013-01-25 02:00:00,30.4,9.0,30.44,ENE,61,1.0,4.0,40,0.00,,---,0.00,VWS V14.01,2013-01-25 07:00:00,
2013-01-25 02:15:00,30.0,9.7,30.45,ESE,108,1.0,4.0,42,0.00,,---,0.00,VWS V14.01,2013-01-25 07:15:00,
2013-01-25 02:30:00,29.7,8.9,30.45,ENE,77,0.0,2.0,41,0.00,,---,0.00,VWS V14.01,2013-01-25 07:30:00,
2013-01-25 02:45:00,29.6,8.8,30.45,East,98,2.0,3.0,41,0.00,,---,0.00,VWS V14.01,2013-01-25 07:45:00,
2013-01-25 03:00:00,29.5,9.2,30.44,ENE,68,2.0,4.0,42,0.00,,---,0.00,VWS V14.01,2013-01-25 08:00:00,
2013-01-25 03:15:00,29.3,10.1,30.43,ENE,78,1.0,3.0,44,0.00,,---,0.00,VWS V14.01,2013-01-25 08:15:00,
2013-01-25 03:30:00,29.2,10.5,30.43,SE,124,1.0,3.0,45,0.00,,---,0.00,VWS V14.01,2013-01-25 08:30:00,
2013-01-25 03:45:00,28.9,11.2,30.41,East,98,2.0,4.0,47,0.00,,---,0.00,VWS V14.01,2013-01-25 08:45:00,
2013-01-25 04:00:00,28.8,12.1,30.42,ENE,70,1.0,5.0,49,0.00,,---,0.00,VWS V14.01,2013-01-25 09:00:00,
2013-01-25 04:15:00,28.8,12.1,30.43,East,90,2.0,2.0,49,0.00,,---,0.00,VWS V14.01,2013-01-25 09:15:00,
2013-01-25 04:30:00,28.7,12.9,30.42,East,84,1.0,3.0,51,0.00,,---,0.00,VWS V14.01,2013-01-25 09:30:00,
2013-01-25 04:45:00,28.6,13.2,30.42,ESE,102,2.0,3.0,52,0.00,,---,0.00,VWS V14.01,2013-01-25 09:45:00,
2013-01-25 05:00:00,28.6,13.2,30.42,NNE,23,0.0,3.0,52,0.00,,---,0.00,VWS V14.01,2013-01-25 10:00:00,
2013-01-25 05:15:00,28.5,13.1,30.42,ENE,75,1.0,2.0,52,0.00,,---,0.00,VWS V14.01,2013-01-25 10:15:00,
2013-01-25 05:30:00,28.4,12.6,30.41,ESE,102,2.0,4.0,51,0.00,,---,0.00,VWS V14.01,2013-01-25 10:30:00,
2013-01-25 05:45:00,28.2,12.4,30.40,ENE,68,2.0,5.0,51,0.00,,---,0.00,VWS V14.01,2013-01-25 10:45:00,
2013-01-25 06:00:00,28.0,12.7,30.38,East,100,1.0,4.0,52,0.00,,---,0.00,VWS V14.01,2013-01-25 11:00:00,
2013-01-25 06:15:00,27.9,12.6,30.40,East,89,0.0,4.0,52,0.00,,---,0.00,VWS V14.01,2013-01-25 11:15:00,
2013-01-25 06:30:00,28.0,13.1,30.40,East,96,2.0,3.0,53,0.00,,---,0.00,VWS V14.01,2013-01-25 11:30:00,
2013-01-25 06:45:00,28.1,12.8,30.41,East,82,4.0,4.0,52,0.00,,---,0.00,VWS V14.01,2013-01-25 11:45:00,
2013-01-25 07:00:00,28.3,12.9,30.41,ESE,107,4.0,4.0,52,0.00,,---,0.00,VWS V14.01,2013-01-25 12:00:00,
2013-01-25 07:15:00,28.6,12.3,30.41,ENE,61,3.0,4.0,50,0.00,,---,0.00,VWS V14.01,2013-01-25 12:15:00,
2013-01-25 07:30:00,28.7,12.0,30.41,East,101,3.0,4.0,49,0.00,,---,0.00,VWS V14.01,2013-01-25 12:30:00,
2013-01-25 07:45:00,28.9,12.1,30.40,ESE,105,3.0,5.0,49,0.00,,---,0.00,VWS V14.01,2013-01-25 12:45:00,
2013-01-25 08:00:00,28.8,10.6,30.40,East,82,1.0,5.0,46,0.00,,---,0.00,VWS V14.01,2013-01-25 13:00:00,
2013-01-25 08:15:00,29.0,10.3,30.39,East,98,3.0,4.0,45,0.00,,---,0.00,VWS V14.01,2013-01-25 13:15:00,
2013-01-25 08:30:00,29.1,10.9,30.39,ESE,118,2.0,4.0,46,0.00,,---,0.00,VWS V14.01,2013-01-25 13:30:00,
2013-01-25 08:45:00,29.2,10.5,30.39,ESE,108,1.0,4.0,45,0.00,,---,0.00,VWS V14.01,2013-01-25 13:45:00,
2013-01-25 09:00:00,29.4,10.2,30.40,ESE,115,1.0,3.0,44,0.00,,---,0.00,VWS V14.01,2013-01-25 14:00:00,
2013-01-25 09:15:00,29.6,9.9,30.40,ENE,66,0.0,3.0,43,0.00,,---,0.00,VWS V14.01,2013-01-25 14:15:00,
2013-01-25 09:30:00,30.0,10.2,30.39,ENE,69,1.0,4.0,43,0.00,,---,0.00,VWS V14.01,2013-01-25 14:30:00,
2013-01-25 09:45:00,30.5,10.7,30.38,ESE,122,2.0,3.0,43,0.00,,---,0.00,VWS V14.01,2013-01-25 14:45:00,
2013-01-25 10:00:00,31.0,11.1,30.38,East,94,1.0,4.0,43,0.00,,---,0.00,VWS V14.01,2013-01-25 15:00:00,
2013-01-25 10:15:00,30.9,12.1,30.37,East,101,1.0,5.0,45,0.00,,---,0.00,VWS V14.01,2013-01-25 15:15:00,
2013-01-25 10:30:00,31.2,12.8,30.36,ESE,114,0.0,4.0,46,0.00,,---,0.00,VWS V14.01,2013-01-25 15:30:00,
2013-01-25 10:45:00,31.5,13.6,30.34,East,98,4.0,4.0,47,0.00,,---,0.00,VWS V14.01,2013-01-25 15:45:00,
2013-01-25 11:00:00,31.5,13.6,30.36,East,86,1.0,4.0,47,0.00,,---,0.00,VWS V14.01,2013-01-25 16:00:00,
2013-01-25 11:15:00,31.8,14.4,30.34,SE,132,1.0,2.0,48,0.00,,---,0.00,VWS V14.01,2013-01-25 16:15:00,
2013-01-25 11:30:00,32.2,14.7,30.33,ENE,63,0.0,3.0,48,0.00,,---,0.00,VWS V14.01,2013-01-25 16:30:00,
2013-01-25 11:45:00,32.1,15.6,30.33,SE,132,0.0,3.0,50,0.00,,---,0.00,VWS V14.01,2013-01-25 16:45:00,
2013-01-25 12:00:00,32.0,15.5,30.32,SW,233,1.0,2.0,50,0.00,,---,0.00,VWS V14.01,2013-01-25 17:00:00,
2013-01-25 12:15:00,32.2,16.1,30.31,SE,131,1.0,3.0,51,0.00,,---,0.00,VWS V14.01,2013-01-25 17:15:00,
2013-01-25 12:30:00,32.3,15.8,30.29,East,98,0.0,2.0,50,0.00,,---,0.00,VWS V14.01,2013-01-25 17:30:00,
2013-01-25 12:45:00,32.2,16.1,30.29,WSW,256,0.0,2.0,51,0.00,,---,0.00,VWS V14.01,2013-01-25 17:45:00,
2013-01-25 13:00:00,32.5,17.3,30.27,ESE,117,1.0,2.0,53,0.00,,---,0.00,VWS V14.01,2013-01-25 18:00:00,
2013-01-25 13:15:00,32.7,17.0,30.24,ESE,108,1.0,3.0,52,0.00,,---,0.00,VWS V14.01,2013-01-25 18:15:00,
2013-01-25 13:30:00,33.2,17.5,30.25,WNW,284,0.0,3.0,52,0.00,,---,0.00,VWS V14.01,2013-01-25 18:30:00,
2013-01-25 13:45:00,33.2,17.9,30.25,WNW,299,0.0,3.0,53,0.00,,---,0.00,VWS V14.01,2013-01-25 18:45:00,
2013-01-25 14:00:00,33.7,18.8,30.24,WNW,287,2.0,2.0,54,0.00,,---,0.00,VWS V14.01,2013-01-25 19:00:00,
2013-01-25 14:15:00,34.3,18.5,30.22,SW,218,0.0,2.0,52,0.00,,---,0.00,VWS V14.01,2013-01-25 19:15:00,
2013-01-25 14:30:00,34.3,19.0,30.22,SE,140,1.0,2.0,53,0.00,,---,0.00,VWS V14.01,2013-01-25 19:30:00,
2013-01-25 14:45:00,34.4,19.0,30.22,NW,314,0.0,2.0,53,0.00,,---,0.00,VWS V14.01,2013-01-25 19:45:00,
2013-01-25 15:00:00,34.4,20.3,30.22,NNW,335,0.0,4.0,56,0.00,,---,0.00,VWS V14.01,2013-01-25 20:00:00,
2013-01-25 15:15:00,34.5,20.9,30.20,ESE,118,2.0,2.0,57,0.00,,---,0.00,VWS V14.01,2013-01-25 20:15:00,
2013-01-25 15:30:00,34.4,20.8,30.21,NW,322,2.0,3.0,57,0.00,,---,0.00,VWS V14.01,2013-01-25 20:30:00,
2013-01-25 15:45:00,34.7,21.5,30.23,NW,314,2.0,3.0,58,0.00,,---,0.00,VWS V14.01,2013-01-25 20:45:00,
2013-01-25 16:00:00,34.5,21.7,30.22,NW,323,1.0,4.0,59,0.00,,---,0.00,VWS V14.01,2013-01-25 21:00:00,
2013-01-25 16:15:00,34.6,22.5,30.21,NNW,327,0.0,4.0,61,0.00,,---,0.00,VWS V14.01,2013-01-25 21:15:00,
2013-01-25 16:30:00,34.5,22.1,30.20,South,169,0.0,2.0,60,0.00,,---,0.00,VWS V14.01,2013-01-25 21:30:00,
2013-01-25 16:45:00,34.6,22.5,30.18,ESE,123,1.0,2.0,61,0.00,,---,0.00,VWS V14.01,2013-01-25 21:45:00,
2013-01-25 17:00:00,34.7,22.2,30.17,SE,131,1.0,2.0,60,0.00,,---,0.00,VWS V14.01,2013-01-25 22:00:00,
2013-01-25 17:15:00,35.0,22.5,30.18,SE,131,0.0,1.0,60,0.00,,---,0.00,VWS V14.01,2013-01-25 22:15:00,
2013-01-25 17:30:00,35.1,22.6,30.18,SSE,153,0.0,1.0,60,0.00,,---,0.00,VWS V14.01,2013-01-25 22:30:00,
2013-01-25 17:45:00,35.1,22.6,30.17,SE,145,0.0,1.0,60,0.00,,---,0.00,VWS V14.01,2013-01-25 22:45:00,
2013-01-25 18:00:00,35.0,22.5,30.16,SE,132,1.0,2.0,60,0.00,,---,0.00,VWS V14.01,2013-01-25 23:00:00,
2013-01-25 18:15:00,35.0,22.9,30.17,SE,129,0.0,3.0,61,0.00,,---,0.00,VWS V14.01,2013-01-25 23:15:00,
2013-01-25 18:30:00,35.2,22.7,30.18,WSW,254,0.0,2.0,60,0.00,,---,0.00,VWS V14.01,2013-01-25 23:30:00,
2013-01-25 18:45:00,35.3,22.8,30.18,WSW,253,0.0,1.0,60,0.00,,---,0.00,VWS V14.01,2013-01-25 23:45:00,
2013-01-25 19:00:00,35.4,23.3,30.17,SSE,168,0.0,2.0,61,0.00,,---,0.00,VWS V14.01,2013-01-26 00:00:00,
2013-01-25 19:15:00,35.6,23.5,30.17,South,173,0.0,1.0,61,0.00,,---,0.00,VWS V14.01,2013-01-26 00:15:00,
2013-01-25 19:30:00,35.7,23.2,30.16,NW,308,0.0,0.0,60,0.00,,---,0.00,VWS V14.01,2013-01-26 00:30:00,
2013-01-25 19:45:00,35.7,23.6,30.16,West,281,0.0,0.0,61,0.00,,---,0.00,VWS V14.01,2013-01-26 00:45:00,
2013-01-25 20:00:00,35.8,23.7,30.16,NW,314,1.0,2.0,61,0.00,,---,0.00,VWS V14.01,2013-01-26 01:00:00,
2013-01-25 20:15:00,35.9,23.8,30.16,SW,219,1.0,2.0,61,0.00,,---,0.00,VWS V14.01,2013-01-26 01:15:00,
2013-01-25 20:30:00,36.0,23.9,30.16,NW,309,1.0,2.0,61,0.00,,---,0.00,VWS V14.01,2013-01-26 01:30:00,
2013-01-25 20:45:00,35.9,23.8,30.15,NNW,333,0.0,2.0,61,0.00,,---,0.00,VWS V14.01,2013-01-26 01:45:00,
2013-01-25 21:00:00,35.5,24.2,30.16,NNW,333,0.0,1.0,63,0.00,,---,0.00,VWS V14.01,2013-01-26 02:00:00,
2013-01-25 21:15:00,35.5,24.5,30.15,NNW,333,0.0,1.0,64,0.00,,---,0.00,VWS V14.01,2013-01-26 02:15:00,
2013-01-25 21:30:00,35.6,24.3,30.15,NNW,328,1.0,1.0,63,0.00,,---,0.00,VWS V14.01,2013-01-26 02:30:00,
2013-01-25 21:45:00,35.7,24.7,30.15,NW,312,0.0,2.0,64,0.00,,---,0.00,VWS V14.01,2013-01-26 02:45:00,
2013-01-25 22:00:00,35.5,24.5,30.15,NW,308,1.0,2.0,64,0.00,,---,0.00,VWS V14.01,2013-01-26 03:00:00,
2013-01-25 22:15:00,35.6,24.6,30.14,NW,316,0.0,2.0,64,0.00,,---,0.00,VWS V14.01,2013-01-26 03:15:00,
2013-01-25 22:30:00,35.5,24.5,30.14,NW,317,1.0,2.0,64,0.00,,---,0.00,VWS V14.01,2013-01-26 03:30:00,
2013-01-25 22:45:00,35.4,24.5,30.15,NW,315,1.0,4.0,64,0.00,,---,0.00,VWS V14.01,2013-01-26 03:45:00,
2013-01-25 23:00:00,35.1,24.5,30.15,NNW,331,2.0,4.0,65,0.00,,---,0.00,VWS V14.01,2013-01-26 04:00:00,
2013-01-25 23:15:00,34.7,23.4,30.15,NNW,338,1.0,4.0,63,0.00,,---,0.00,VWS V14.01,2013-01-26 04:15:00,
2013-01-25 23:30:00,34.6,23.3,30.15,NW,324,1.0,4.0,63,0.00,,---,0.00,VWS V14.01,2013-01-26 04:30:00,
2013-01-25 23:45:00,34.2,22.9,30.14,WNW,299,1.0,4.0,63,0.00,,---,0.00,VWS V14.01,2013-01-26 04:45:00,